Zurück zum Katalog

STARLINK-1167

AktivKommunikationVLEO
NORAD 45071·PAYLOAD·🇺🇸 United States

Gestartet Jan 29, 2020 von Cape Canaveral Space Force Station

Loading…

Nächste Überflüge (nächste 24 Stunden)

TLE

AktuellSource: CelesTrak SupGP

Epoche: Sep 14, 2026, 21:56 UTC

1 45071C 20006AD  26257.91437500  .00050231  00000+0  10213-2 0  2572
2 45071  53.1514  88.6705 0002914 169.4352 338.4864 15.45682833    10

Verfolge STARLINK-1167 in Echtzeit mit AllMySat

Download on the App Store